TimeEDT,TemperatureF,Dew PointF,Humidity,Sea Level PressureIn,VisibilityMPH,Wind Direction,Wind SpeedMPH,Gust SpeedMPH,PrecipitationIn,Events,Conditions,WindDirDegrees,DateUTC
12:53 AM,44.1,25.0,47,29.85,10.0,WSW,4.6,-,N/A,,Overcast,240,2012-11-02 04:53:00
1:53 AM,44.1,25.0,47,29.84,10.0,WSW,4.6,-,N/A,,Overcast,250,2012-11-02 05:53:00
2:53 AM,44.1,27.0,51,29.84,10.0,WSW,4.6,-,N/A,,Overcast,250,2012-11-02 06:53:00
3:53 AM,43.0,27.0,53,29.83,10.0,West,5.8,-,N/A,,Overcast,260,2012-11-02 07:53:00
4:53 AM,41.0,27.0,57,29.83,10.0,WNW,4.6,-,N/A,,Mostly Cloudy,290,2012-11-02 08:53:00
5:53 AM,41.0,28.0,60,29.84,10.0,NW,4.6,-,N/A,,Overcast,310,2012-11-02 09:53:00
6:53 AM,41.0,27.0,57,29.86,10.0,WNW,5.8,-,N/A,,Overcast,290,2012-11-02 10:53:00
7:53 AM,39.9,27.0,60,29.88,10.0,West,5.8,-,N/A,,Mostly Cloudy,280,2012-11-02 11:53:00
8:53 AM,39.0,28.0,65,29.91,10.0,WNW,5.8,-,N/A,,Partly Cloudy,300,2012-11-02 12:53:00
9:53 AM,41.0,28.0,60,29.94,10.0,WNW,12.7,-,N/A,,Clear,300,2012-11-02 13:53:00
10:53 AM,44.1,28.9,55,29.95,10.0,West,9.2,-,N/A,,Clear,280,2012-11-02 14:53:00
11:53 AM,45.0,27.0,49,29.96,10.0,NW,12.7,17.3,N/A,,Scattered Clouds,320,2012-11-02 15:53:00
12:53 PM,45.0,27.0,49,29.96,10.0,WNW,10.4,19.6,N/A,,Mostly Cloudy,300,2012-11-02 16:53:00
1:53 PM,48.9,28.0,44,29.97,10.0,West,15.0,27.6,N/A,,Overcast,280,2012-11-02 17:53:00
2:53 PM,46.9,27.0,46,29.97,10.0,WNW,10.4,18.4,N/A,,Overcast,300,2012-11-02 18:53:00
3:53 PM,46.9,27.0,46,29.99,10.0,NW,16.1,21.9,N/A,,Overcast,320,2012-11-02 19:53:00
4:53 PM,46.9,27.0,46,30.01,10.0,WNW,12.7,21.9,N/A,,Partly Cloudy,300,2012-11-02 20:53:00
5:53 PM,45.0,27.0,49,30.03,10.0,WNW,6.9,-,N/A,,Overcast,300,2012-11-02 21:53:00
6:53 PM,44.1,27.0,51,30.05,10.0,WNW,9.2,-,N/A,,Overcast,290,2012-11-02 22:53:00
7:53 PM,44.1,28.0,53,30.06,10.0,WNW,6.9,-,N/A,,Overcast,290,2012-11-02 23:53:00
8:53 PM,43.0,28.9,58,30.07,10.0,WNW,8.1,-,N/A,,Overcast,300,2012-11-03 00:53:00
9:53 PM,42.1,28.9,60,30.08,10.0,NW,6.9,16.1,N/A,,Overcast,310,2012-11-03 01:53:00
10:53 PM,41.0,27.0,57,30.09,10.0,NW,9.2,18.4,N/A,,Overcast,310,2012-11-03 02:53:00
11:53 PM,41.0,28.0,60,30.10,10.0,NW,4.6,-,N/A,,Overcast,320,2012-11-03 03:53:00